Location: Boiro
(42.6475°N, 8.8834°W)
Time: 18:35:04
(UTC+01:00)

Tiros 1 despin weight - Pass Details

Date: 02 December 2021
Orbit: 592 x 641 km, 48.2° (Epoch: 20 January)

Event Time Altitude Azimuth Distance (km) Brightness Sun altitude
Rises 20:51:55 0° 295° (WNW) 2,828 ? -30.4°
Reaches altitude 10° 20:54:13 10° 291° (WNW) 1,927 ? -30.9°
Enters shadow 20:56:35 30° 279° (W) 1,074 ? -31.3°
Maximum altitude 20:58:33 58° 213° (SSW) 698 - -31.6°
Drops below altitude 10° 21:02:55 10° 134° (SE) 1,939 - -32.5°
Sets 21:05:15 0° 130° (SE) 2,847 - -32.9°
